Regional Weather Roundup
Issued by NWS

Home | Current Version | Previous Version | Graphics & Text | Print | Product List | Glossary On
Versions: 1 2 3 4 5 6 7 8 9 10 11 12 13 14 15 16 17 18 19 20 21 22 23 24 25 26 27 28
000
ASUS45 KCYS 041110
RWRWY

WYOMING REGIONAL WEATHER ROUNDUP
NATIONAL WEATHER SERVICE CHEYENNE WY
400 AM MST SUN DEC 04 2016

NOTE:  "FAIR" INDICATES FEW OR NO CLOUDS BELOW 12,000 FEET
WITH NO SIGNIFICANT WEATHER AND/OR OBSTRUCTIONS TO VISIBILITY.

WYZ001-041200-
YELLOWSTONE NATIONAL PARK

CITY           SKY/WX    TMP DP  RH WIND       PRES   REMARKS
LK YELLOWSTONE   N/A     20  17  88 CALM      29.95F
W YELLOWSTONE  NOT AVBL

$$
WYZ002>013-054>058-071-098>099-041200-
NORTHERN WYOMING

CITY           SKY/WX    TMP DP  RH WIND       PRES   REMARKS
JACKSON        CLOUDY    27  25  93 S20       30.01F WCI  13
CODY           FAIR      33  14  45 CALM      29.89F
GREYBULL       CLOUDY    25  17  72 SE3       29.93F
WORLAND        MOCLDY    22  16  78 SW7       29.93F WCI  13
SHERIDAN       MOCLDY    28  14  55 W8        29.89F WCI  20
BUFFALO        CLOUDY    30   9  41 SW3       29.89F
GILLETTE       MOCLDY    25  17  72 SW9       29.89F WCI  15
HULETT         CLOUDY    30  21  69 S7        29.89F WCI  23
NEWCASTLE      FAIR      27  19  74 N6        29.93F WCI  20

$$
WYZ014>020-022>026-101>103-041200-
CENTRAL WYOMING

CITY           SKY/WX    TMP DP  RH WIND       PRES   REMARKS
BIG PINEY      FAIR       5   2  87 E5        30.06F WCI  -4
PINEDALE       CLOUDY    12  10  92 CALM      30.06F
DUBOIS         CLOUDY    27  12  54 N21G30    29.89F WCI  13
LANDER         FAIR      18   8  65 W10       29.94F WCI   6
RIVERTON       FAIR      22   9  57 W12       29.95F WCI  10
CASPER         FAIR      22  12  65 SW20G25   29.96F WCI   7
DOUGLAS        FAIR      13   8  81 SE6       29.96F WCI   4

$$
WYZ021-027>030-104>119-041200-
SOUTHERN WYOMING

CITY           SKY/WX    TMP DP  RH WIND       PRES   REMARKS
EVANSTON       FAIR      20  13  74 SW16      30.11F WCI   6
FORT BRIDGER   FAIR      23  16  74 W14       30.12F WCI  10
ROCK SPRINGS   FAIR      23  14  68 W22G32    30.07S WCI   8
DIXON          CLOUDY    21  14  72 SW8       30.15F WCI  12
RAWLINS        CLOUDY    22  13  68 VRB5      30.03F WCI  16
SARATOGA       CLOUDY    23  14  68 SW6       30.07F WCI  16
LARAMIE        FAIR      19   8  62 SW24G30   29.97F WCI   2
CHEYENNE       FAIR      25   8  48 VRB3      29.96F
TORRINGTON     FAIR      26  13  57 S3        29.99S
PINE BLUFFS    FAIR      28  12  50 W17G31    30.01S WCI  16

$$




USA.gov is the U.S. government's official web portal to all federal, state and local government web resources and services.